Location: Monrovia
(34.7865°N, 86.7139°W)
Time: 00:51:18
(UTC+00:00)

NOSS 3-4 (C) - Pass Details

Date: 14 July 2020
Orbit: 891 x 1321 km, 63.4° (Epoch: 12 July)

Event Time Altitude Azimuth Distance (km) Brightness Sun altitude
Rises 03:03:10 0° 331° (NNW) 3,889 8.1 -20.7°
Reaches altitude 10° 03:05:45 10° 334° (NNW) 2,989 7.1 -21.1°
Maximum altitude 03:12:57 70° 58° (ENE) 1,273 4.0 -22.0°
Enters shadow 03:16:11 38° 130° (SE) 1,797 4.3 -22.5°
